Погода в Нальчике

Поиск расширенной информации на нашем сайте:

Полезная информация:

Новости сайта



02.01.2020
Опубликован Долгосрочный прогноз погоды по городам России и ближнего зарубежья на январь 2020 года.
Карты: Прогноз на январь и февраль 2020 года, Сравнение прогнозируемой аномалии приземной температуры воздуха на январь 2020 года по разным моделям.




Погода в Нальчике - сегодня

Время (UTC), дата Ветер
(°,м/с) 
Видим.   Явления Облачность Т
(°С)
Тd
(°С)
f(%) Тe
(°С)
Pmin
(гПа)
dP
(гПа)
Po
(мм)
O2
(г/м3)
Тmin Tmax R s Состояние
почвы
15 18.10.20 тихо ()   10 км    ясно 
+17.2 +9.9 62 +19  1015.1  0.6  724  273    +25.8       
18 18.10.20 220 (ЮЗ) 10 км    ясно 
+14.3 +7.6 64 +15  1016.3  0.7  725  276           
21 18.10.20 240 (ЮЗ) 10 км    ясно 
+13.1 +4.3 55 +14  1015.9  -0.7  724  278           
00 19.10.20 200 (Ю) 10 км    ясно 
+13.8 +2.7 47 +14  1016.6  0.8  725  278           
03 19.10.20 190 (Ю) 10 км    4/0 верхняя 
[Ci fib]
+12.9 +2.9 51 +13  1018.1  1.3  726  279  +10.3        сухая 
06 19.10.20 250 (З) 20000 м    6/0 верхняя 
[Ci fib]
+18.7 +5.8 43 +20  1017.1  0.1  726  273           
09 19.10.20 310 (СЗ) 20000 м    10/0 верхняя 
[Ci fib]
+22.4 +10 45 +24  1014.5  -1.8  725  268           
12 19.10.20 360 (С) 10 км    10/0 средняя, верхняя 
[Ac trans|Ci fib]
+23.9 +7.4 35 +24  1013.1  -1.1  724  267           
15 19.10.20 260 (З) 10 км    8/3 1000 м средняя 
[Sc diur, vesp|Ac trans]
+17 +5 45 +18  1015.1  0.7  724  274    +24.6       
18 19.10.20 270 (З) 10 км    10/0 средняя 
[Ac und]
+16.7 +7.2 53 +17  1017.2  726  274           
21 19.10.20 350 (С) 10 км  {ливн. осадки}  10/4 600 м кучево-дожд., средняя 
[Cb cap|Ac cuf]
+15.2 +11.4 78 +19  1020  2.5  728  276           
00 20.10.20 250 (З) 10 км  {ливн. осадки}  10/10 870 м кучево-дожд. 
[Cb cap]
+14.1 +8.5 69 +15  1021.1  0.8  728  278           
03 20.10.20 360 (С) 10 км    10/10 800 м кучево-дожд. 
[Cb cap]
+13.4 +7.8 69 +14  1024.1  2.7  730  279  +13.4    0.0    влажная 
06 20.10.20 010 (С) 10 км  {ливн. осадки}  10/10 840 м кучево-дожд. 
[Cb cap]
+10.9 +8.1 83 +11  1026.3  1.7  732  282  +10.9         
09 20.10.20 090 (В) 10 км    10/10 500 м кучево-дожд. 
[Cb cap]
+11.5 +8.6 82 +11  1025.6  -0.5  731  281           
12 20.10.20 120 (ЮВ) 10 км  {ливн. осадки}  10/4 600 м кучево-дожд., средняя 
[Cb cap|Ac trans]
+12.1 +7.6 74 +13  1024.9  -0.6  731  281           
15 20.10.20 260 (З) 10 км    10/4 600 м кучево-дожд., средняя 
[Cb cap|Ac trans]
+11.5 +7.3 75 +12  1025.5  0.4  731  281    +13.4  0.3     
18 20.10.20 220 (ЮЗ) 10 км    8/0 средняя 
[Ac trans]
+10.8 +7.3 79 +11  1025.7  0.1  731  282           
21 20.10.20 250 (З) 10 км    10/0 средняя 
[Ac trans]
+10.8 +7.7 81 +11  1026.3  0.6  732  282           
00 21.10.20 тихо ()   10 км    10/6 700 м средняя 
[Sc|Ac trans]
+10.3 +7.1 81 +10  1027.4  0.9  732  283           
03 21.10.20 тихо ()   10 км    10/6 800 м средняя 
[Sc diur, vesp|Ac trans]
+9.9 +6.6 80 +10  1029  1.5  733  284  +9.9         
06 21.10.20 020 (С) 10 км    10/8 540 м кучево-дожд., средняя 
[Cb cap|Ac trans]
+10 +5.3 73 +10  1031.1  1.9  735  285  +9.8         
09 21.10.20 210 (ЮЗ) 10 км    9/4 600 м средняя 
[Sc|Ac trans]
+12 +5.2 63 +13  1029.1  -1.5  734  282           
12 21.10.20 070 (В) 10 км    3/3 600 м верхняя 
[Cu hum|Ci fib]
+14.8 +4.6 50 +15  1028  -0.6  733  280           
15 21.10.20 120 (ЮВ) 10 км    4/0 верхняя 
[Ci fib]
+10.9 +4.9 66 +12  1028.2  -0.4  733  283    +15.2       
Время (UTC), дата Ветер
(°,м/с) 
Видим.   Явления Облачность Т
(°С)
Тd
(°С)
f(%) Тe
(°С)
Pmin
(гПа)
dP
(гПа)
Po
(мм)
O2
(г/м3)
Тmin Tmax R s Состояние
почвы

Для получения пояснительной информации подведите курсор к названию столбца.

ПОГОДА в Нальчике - архив

Всё, что Вы хотите узнать о погоде в Нальчике - удобно и подробно!

Выберите нужную дату (начиная с 1 января 2019* года) и нажмите кнопку "Найти".
Будут отображены архивные сводки погоды по пункту Нальчик, начиная с указанной даты.


Отображать данные в формате CSV (для использования в таблицах Excel)


Внимание! Наш архив погоды предназначен исключительно для личного некоммерческого использования в познавательных целях. Если Вам необходимы официальные справки о состоянии погоды (для производственных, юридических, коммерческих и т.п. целей), обращайтесь в органы Росгидромета.

*Примечание: данная дата относится к архиву по метеостанциям СССР (Россия, СНГ, Балтия).
Архив по метеостанциям Зарубежной Европы и Азии (кроме Китая) хранится 10 дней, по другим регионам земного шара (Китай, Африка, Америка, Австралия, Океания) - 1 день.

Нальчик - район местоположения метеостанции


Название, широта, долгота, высота метеостанции:
Нальчик 43.5°ш. 43.7°д. 432 м над ур. моря [Российская Федерация]

Дополнительная информация

В oтличие oт бoльшинства пoгoдных сайтoв мы публикуем пoдрoбную метеoинфoрмацию в детальнoм прoфессиoнальнoм фoрмате.

Характеристики температуры и влажнoсти вoздуха измеряются на высoте 2 м в тени вдали oт зданий и деревьев.
Скoрoсть ветра измеряется на высoте 10 м (на урoвне рoста челoвека скoрoсть ветра ниже в 1.5-2 раза). Если метеoстанция нахoдится в гoрoде или в лесу, тo скoрoсть ветра занижена на 2-4 м/с пo сравнению с oткрытым местoм. Скoрoсть ветра над акватoриями крупных рек и oзёр, а также на вершинах хoлмoв на 2-5 м/с выше, чем в oбычных услoвиях.
Атмoсфернoе давление в разных тoчках местнoсти мoжет значительнo oтличаться oт давления на метеoстанции, в зависимoсти oт услoвий рельефа (при пoдъёме на 10 м давление пoнижается примернo на 1 мм рт.ст.).